Location: Sungai Apap
(2.6167°N, 113.3833°E)
Time: 15:17:07
(UTC+00:00)

Resurs 1-3 - Pass Details

Date: 25 May 2024
Orbit: 621 x 623 km, 97.7° (Epoch: 12 June)

Event Time Altitude Azimuth Distance (km) Brightness Sun altitude
Exits shadow 12:32:19 47° 273° (W) 829 4.4 -28.7°
Drops below altitude 10° 12:36:10 10° 333° (NNW) 1,984 6.8 -29.6°
Sets 12:38:25 0° 339° (NNW) 2,887 7.6 -30.1°
